Terug naar catalogus

STARLINK-36272

ActiefCommunicatieSSO
NORAD 68215·PAYLOAD·🇺🇸 United States

Gelanceerd Mar 17, 2026 vanaf Vandenberg Space Force Base

Loading…

Volgende Passages (komende 24 uur)

TLE

VersSource: CelesTrak SupGP

Epoch: Sep 14, 2026, 21:39 UTC

1 68215C 26053J   26257.90256944  .00008339  00000+0  25897-3 0  2572
2 68215  97.2846 131.7262 0001822  91.6533 271.5578 15.33421149    11

Volg STARLINK-36272 in realtime met AllMySat

Download on the App Store